Flag for U.S.A. Weather past 2 weeks in Scottsdale, Arizona, U.S.A.

Now
56 °F

Overcast.


Feels Like: 56 °F
Forecast: 51 / 60 °F
Wind: No wind

Location: Scottsdale Airport

Current Time: Jan 30, 2015 at 5:23:46 PM

Latest Report: Jan 30, 2015 at 4:53 PM


Visibility: 10 mi

Pressure: 29.82 "Hg

Humidity: 90%

Dew point: 53 °F

Location of ScottsdaleLocation

Historic Weather in Scottsdale — Graph

°F

Scottsdale temperature yesterday

Maximum temperature yesterday: 70 °F (at 2:53 PM)
Minimum temperature yesterday: 57 °F (at 2:53 AM)
Average temperature yesterday: 61 °F

Past Weeks' High & Low Weather Summary

 TemperatureHumidityPressure
High76 °F (Jan 25, 2:53 PM)94% (Jan 30, 6:02 AM)30.32 "Hg (Jan 30, 6:02 AM)
Low39 °F (Jan 23, 7:53 AM)6% (Jan 24, 4:53 PM)29.78 "Hg (Jan 21, 5:53 AM)
Average59 °F46%30.09 "Hg
* Reported Jan 15 3:53 PM — Jan 30 3:53 PM, Scottsdale, Weather by CustomWeather, © 2014

Note: Actual official high and low records may vary slightly from our data, if they occured in-between our weather recording intervals... More about our weather records

Advertising

Scottsdale weather history for previous 24 hours

 ConditionsComfort  
Time TempWeatherWind HumidityBarometerVisibility
3:53 PM
Jan 30
56 °FLight rain. Fog.3 mph93%29.83 "Hg4 mi
2:53 PM56 °FLight rain. Fog.3 mph93%29.83 "Hg5 mi
2:01 PM55 °FLight rain. Fog.5 mph94%29.87 "Hg6 mi
1:02 PM55 °FLight rain. Fog.5 mph94%29.89 "Hg1 mi
11:53 AM56 °FLight rain. Fog.3 mph90%29.88 "Hg6 mi
10:53 AM56 °FLight rain. Fog.3 mph90%29.89 "Hg3 mi
9:53 AM56 °FLight rain. Overcast.7 mph90%29.89 "Hg10 mi
8:53 AM56 °FLight rain. Fog.7 mph90%29.90 "Hg4 mi
7:53 AM56 °FOvercast.7 mph90%29.88 "Hg10 mi
7:00 AM55 °FLight rain. Mostly cloudy.6 mph94%29.93 "Hg10 mi
6:02 AM55 °FLight rain. Fog.7 mph94%29.92 "Hg4 mi
5:53 AM56 °FLight rain. Fog.5 mph90%29.89 "Hg2 mi
4:53 AM57 °FMostly cloudy.No wind87%29.88 "Hg10 mi
3:53 AM57 °FLight rain. Fog.6 mph87%29.90 "Hg6 mi
2:53 AM58 °FLight rain. Mostly cloudy.No wind87%29.92 "Hg10 mi
1:53 AM58 °FLight rain. Mostly cloudy.5 mph84%29.92 "Hg9 mi
12:53 AM59 °FLight rain. Mostly cloudy.No wind84%29.96 "Hg7 mi
11:53 PM
Jan 29
58 °FLight rain. Fog.No wind93%29.98 "Hg6 mi
10:53 PM59 °FLight rain. Overcast.3 mph90%29.98 "Hg9 mi
9:53 PM59 °FLight rain. Mostly cloudy.3 mph90%29.99 "Hg7 mi
8:53 PM59 °FOvercast.No wind90%30.02 "Hg7 mi
7:53 PM60 °FLight rain. Mostly cloudy.No wind86%30.03 "Hg9 mi
6:53 PM61 °FLight rain. Overcast.No wind83%30.05 "Hg8 mi
5:53 PM64 °FLight rain. Mostly cloudy.3 mph65%30.03 "Hg10 mi
Weather by CustomWeather, © 2014

See weather overviewHow to use our weather pages